Location: Ar Ranvel
(48.3000°N, 4.8833°W)
Time: 14:35:18
(UTC+00:00)

Cosmos 1536 Rocket - Pass Details

Date: 16 June 2021
Orbit: 604 x 633 km, 82.5° (Epoch: 30 July)

Event Time Altitude Azimuth Distance (km) Brightness Sun altitude
Exits shadow 22:35:22 19° 187° (S) 1,498 5.0 -14.6°
Maximum altitude 22:38:32 88° 101° (E) 639 3.6 -14.8°
Drops below altitude 10° 22:43:02 10° 10° (N) 2,018 7.1 -15.1°
Sets 22:45:16 0° 10° (N) 2,926 8.0 -15.2°
